Miscellaneous Local Product
Issued by NWS Hastings, NE

Home | Current Version | Previous Version | Graphics & Text | Print | Product List | Glossary On
Versions: 1 2 3 4 5 6 7 8 9 10 11 12 13 14 15 16 17 18 19 20 21 22 23 24 25 26 27 28 29 30 31 32 33 34 35 36 37 38 39 40 41 42 43 44 45 46 47 48 49 50
000
AXUS43 KGID 290202
MISGRI

GID CWA HOURLY WEATHER ROUNDUP
NATIONAL WEATHER SERVICE HASTINGS NE
900 PM CDT TUE JUL 28 2015

NOTE: "FAIR" INDICATES FEW OR NO CLOUDS BELOW 12,000 FEET WITH NO
SIGNIFICANT WEATHER AND/OR OBSTRUCTIONS TO VISIBILITY.

...SOUTH CENTRAL NEBRASKA...

CITY           SKY/WX    TMP DP  RH WIND       PRES   REMARKS
GRAND ISLAND   CLEAR     71  59  65 N8        30.00R
HASTINGS       CLEAR     73  64  73 N6        30.00R
KEARNEY        CLEAR     73  55  53 N6        30.02R
ORD            CLEAR     70  59  68 N5        30.01R
YORK           CLEAR     72  64  78 N6        29.97S
AURORA         CLEAR     70  64  81 N3        29.99R
LEXINGTON      CLEAR     75  63  67 N6        30.04R
HOLDREGE       CLEAR     71  62  73 N6        30.02S
HEBRON         MOCLDY    77  59  53 N10G16    29.95R

...NEBRASKA PANHANDLE...

CITY           SKY/WX    TMP DP  RH WIND       PRES   REMARKS
CHADRON        CLEAR     72  41  32 N5        30.11R
ALLIANCE       CLEAR     67  44  43 E7        30.13R
SCOTTSBLUFF    CLEAR     71  51  49 E7        30.14R
SIDNEY         CLEAR     70  37  29 N6        30.17R

...WESTERN AND NORTH CENTRAL NEBRASKA...

CITY           SKY/WX    TMP DP  RH WIND       PRES   REMARKS
VALENTINE      CLEAR     74  43  32 NW6       30.06R
AINSWORTH      CLEAR     73  45  36 NW6       30.07R
ONEILL         CLEAR     73  60  63 CALM      30.02R
BROKEN BOW     CLEAR     70  59  68 N6        30.05R
IMPERIAL       CLEAR     72  49  44 E6        30.11R
NORTH PLATTE   CLEAR     68  52  56 NE6       30.08R
MCCOOK         CLEAR     73  54  51 NE8       30.06R

...EASTERN NEBRASKA...

CITY           SKY/WX    TMP DP  RH WIND       PRES   REMARKS
NORFOLK        CLEAR     72  60  66 NW5       29.99R
SO SIOUX CITY  CLEAR     73  63  70 NW5       29.95R
TEKAMAH        CLOUDY    75  67  76 N5        29.95R
COLUMBUS       PTCLDY    72  61  68 NW6       29.97S
ALBION         CLEAR     71  55  57 N3        30.01R
OMAHA EPPLEY   MOCLDY    76  67  73 N10       29.92R
OFFUTT AFB     PTCLDY    78  64  63 N13G18    29.91R
MILLARD        PTCLDY    78  65  65 NW10G17   29.93R
LINCOLN        MOCLDY    75  63  66 N9        29.95R
NEBRASKA CITY  TSTM      75  69  80 N12G17    29.92R
BEATRICE       MOCLDY    76  66  70 N12       29.94R
FALLS CITY     MOCLDY    82  77  84 NW13G21   29.86R HX  90

...NORTHERN KANSAS...

CITY           SKY/WX    TMP DP  RH WIND       PRES   REMARKS
GOODLAND       CLEAR     71  48  43 NE9       30.11R
HILL CITY      CLEAR     73  58  59 N8        30.01R
NORTON         CLEAR     73  54  49 N8        30.02S
PHILLIPSBURG   CLEAR     81  57  44 N7        29.99R
SMITH CENTER   CLEAR     75  55  50 N9        29.98R
HAYS           CLEAR     79  57  47 N14       29.98R
RUSSELL        PTCLDY    80  63  55 N15       29.95R
CONCORDIA      MOCLDY    78  70  76 N9        29.94R
SALINA         PTCLDY    86  74  67 N21       29.89R HX  94
TOPEKA         CLEAR     89  74  60 S10       29.84F HX  98



USA.gov is the U.S. government's official web portal to all federal, state and local government web resources and services.